Wind_Speed
12 16 16 16 16 17 18 20 21 20 21 20 19 20 23 23 22 22 22 19 19 24 29 28 26 28 27 28 33 34 32 28 29 20 19 11 9 17 15 16 24 31 24 21 18 12 15 28 21 29 30 29 24 26
9 11 13 13 13 15 16 17 18 18 17 16 16 18 17 16 16 18 22 23 20 20 29 24 23 20 18 23 22 21 24 24 21 20 16 15 12 18 23 16 21 23 29 29 23 27 33 21 23 15 17 16 19 23
6 8 10 13 15 14 13 15 16 18 18 18 19 19 18 17 18 14 19 21 21 19 26 21 21 20 20 20 20 19 26 22 24 23 19 13 11 15 13 21 17 22 24 28 27 31 27 23 26 22 19 20 24 28
5 7 9 11 13 13 16 17 17 18 20 18 18 19 20 23 25 22 21 21 21 27 27 23 20 19 18 19 17 14 15 15 16 18 17 13 16 14 19 18 26 25 26 32 31 33 30 30 32 33 33 33 33 33
9 7 8 10 12 13 13 13 13 14 14 15 15 16 19 24 24 21 20 21 22 14 28 25 18 17 16 14 12 11 11 11 11 11 12 13 16 14 16 20 30 28 32 30 33 34 36 39 35 30 28 28 28 30
13 12 10 8 9 11 12 14 16 17 14 16 16 16 17 17 17 20 20 19 19 9 22 20 18 18 16 15 13 12 13 14 13 12 13 14 16 15 16 28 34 30 29 29 35 34 38 43 43 44 44 45 41 39
17 15 12 11 12 10 9 10 13 14 16 17 18 18 17 16 14 16 16 18 18 15 21 17 15 15 14 16 16 17 18 16 15 17 18 19 20 21 29 38 21 20 23 26 29 31 35 32 33 30 33 37 37 38
18 16 16 14 15 15 13 12 12 14 15 14 15 14 13 12 10 10 14 15 16 17 19 10 11 16 15 13 12 14 14 15 17 18 20 22 20 22 25 16 17 17 21 25 24 25 33 30 31 32 31 35 40 40
16 16 16 16 15 16 15 15 13 14 14 13 12 12 10 12 11 10 10 12 12 12 10 10 14 12 14 11 10 9 10 9 10 12 15 13 19 16 15 15 17 15 20 22 20 20 21 23 21 22 25 27 30 32
14 13 15 15 18 18 19 16 15 15 14 13 12 12 11 9 7 7 7 7 8 11 9 15 14 12 15 13 11 8 8 7 3 5 7 12 18 9 9 11 12 13 13 17 17 22 21 21 18 18 21 23 27 26
11 12 11 10 16 19 21 18 18 15 14 12 10 7 7 5 4 3 4 5 6 5 8 13 13 14 12 14 13 7 4 2 2 3 4 4 6 7 8 9 10 12 11 12 12 9 14 12 13 15 16 17 15 11
11 10 13 14 16 22 21 19 17 15 11 10 7 7 6 4 3 4 5 5 6 5 8 11 14 13 12 13 7 5 4 3 2 3 3 4 3 7 7 9 10 10 7 6 3 7 8 6 3 2 4 8 10 11
13 15 17 15 19 22 19 19 15 15 13 9 7 4 3 3 3 4 4 5 6 7 10 10 10 15 13 10 5 5 4 3 1 4 4 5 8 7 5 7 7 7 7 5 4 1 2 4 6 8 6 6 4 1
11 12 12 14 15 16 15 18 16 14 18 13 6 4 2 3 3 5 8 8 9 7 9 9 9 5 6 9 5 4 5 4 4 4 4 8 9 3 1 3 5 4 3 2 4 6 7 7 9 8 7 5 3 3
6 8 10 16 17 18 19 19 20 20 17 10 5 3 4 4 4 6 7 5 7 7 8 5 3 4 4 2 5 5 4 4 5 6 6 7 1 3 4 4 5 6 6 5 4 4 6 7 11 11 8 7 6 5
5 3 6 9 9 12 13 13 15 18 15 8 3 5 8 8 5 5 5 5 5 11 7 6 3 4 6 4 4 5 4 4 4 5 2 3 5 5 5 6 7 6 6 7 7 6 6 5 5 10 10 10 8 7
8 5 7 11 15 12 13 15 14 15 6 5 6 6 6 7 6 2 5 5 7 6 8 5 4 4 4 4 4 5 4 7 7 5 5 2 2 2 3 4 4 5 5 6 6 7 7 7 7 9 9 8 7 8
10 9 6 10 14 14 13 14 13 6 7 9 9 7 5 5 5 3 5 4 10 8 9 9 5 6 3 1 5 2 4 8 6 6 4 3 3 4 4 5 6 7 6 6 6 6 6 6 7 9 10 10 9 11
8 8 10 5 14 14 13 15 12 5 8 6 2 4 6 5 4 4 4 6 6 6 6 6 5 7 8 7 4 4 6 4 3 5 7 5 4 6 8 8 8 8 8 7 7 7 7 7 7 8 10 13 13 12
2 5 5 6 9 12 6 3 16 9 4 4 4 4 3 5 6 6 5 6 7 9 12 10 7 4 5 7 10 9 9 8 6 8 9 7 6 9 11 9 7 7 8 8 8 8 7 7 8 9 10 11 13 14
5 5 3 3 6 9 6 4 6 5 6 9 8 6 4 5 5 7 6 5 5 7 10 12 9 5 4 3 5 4 6 7 4 5 7 10 10 11 11 9 7 7 7 7 8 8 8 8 8 9 10 10 10 11
5 7 9 9 9 10 10 8 5 3 5 3 5 7 5 5 5 7 6 8 7 6 8 7 8 7 5 6 7 5 6 7 7 7 8 10 11 10 9 8 7 7 7 8 9 9 9 8 8 8 9 10 11 12
4 0 3 8 8 8 7 11 10 9 2 6 5 3 2 2 3 4 5 5 5 9 9 10 10 11 10 9 9 10 12 13 12 12 12 13 14 12 13 13 12 11 12 13 13 12 12 11 10 9 8 9 10 11
5 6 4 3 6 7 9 8 8 8 6 7 6 5 5 7 7 8 10 6 5 8 9 9 9 10 11 11 13 14 14 14 14 13 13 14 15 15 15 14 14 14 15 15 15 14 14 14 13 12 10 9 10 12
8 8 8 9 7 8 10 12 11 10 9 7 9 8 8 8 9 12 13 9 7 8 9 10 10 10 10 11 13 14 13 12 11 12 12 10 9 8 9 9 10 11 11 12 13 13 14 13 13 13 12 11 11 12
10 9 9 9 12 11 10 12 13 14 14 13 11 10 10 11 13 9 12 11 10 9 9 9 9 9 9 9 10 9 8 9 7 6 6 6 7 8 9 10 11 12 12 12 12 12 12 12 12 13 14 14 13 13
14 11 17 19 18 16 16 17 15 12 10 11 12 12 11 9 8 14 16 15 14 12 11 12 12 12 12 10 8 6 5 6 7 9 11 12 13 14 15 15 15 15 15 14 14 13 13 13 12 14 14 15 15 15
16 16 17 19 21 21 19 14 14 14 14 14 15 15 9 9 13 16 16 14 14 13 13 14 14 14 13 11 10 10 10 11 13 13 14 16 16 16 16 16 15 15 15 16 15 15 14 14 14 13 14 15 16 17
13 18 19 18 17 17 20 19 18 19 21 18 17 18 20 22 22 23 23 20 18 18 20 20 19 18 15 14 13 13 13 12 13 15 16 16 15 15 16 15 15 15 16 17 17 18 17 16 15 15 15 15 16 17
16 18 18 19 19 17 18 20 25 27 28 28 26 26 24 22 21 19 20 21 23 22 26 31 28 21 18 16 15 13 13 15 16 16 15 16 16 16 16 16 16 16 16 16 16 17 18 18 17 17 16 15 14 15
13 13 15 17 20 20 22 24 22 21 25 28 26 25 23 23 21 18 16 13 15 20 19 23 17 18 19 17 16 15 14 13 12 13 14 14 14 14 14 14 15 16 16 16 15 15 15 16 16 16 15 14 12 13
11 12 14 15 15 14 16 22 25 26 26 24 20 19 18 22 27 22 20 19 19 18 16 15 15 19 21 19 15 13 13 12 12 12 10 10 9 10 10 10 11 11 12 13 13 13 13 13 14 15 15 14 14 14
10 12 12 13 14 12 12 15 13 14 18 21 22 23 22 23 27 24 23 20 21 20 18 17 18 17 17 15 14 14 13 13 13 12 9 7 7 8 9 9 10 10 11 11 11 11 11 12 12 13 15 16 16 17
Wind_Direction
77 77 82 84 88 89 88 94 99 106 118 134 147 152 158 162 161 164 162 155 161 160 167 175 176 173 174 188 185 175 171 176 181 190 194 184 186 194 195 195 202 202 196 207 208 208 245 250 227 228 254 263 267 268
77 93 94 95 101 93 96 101 105 107 108 116 126 128 132 139 154 155 164 167 166 174 161 165 174 178 193 205 203 204 203 204 201 198 202 205 180 197 209 203 211 208 215 217 219 232 248 260 261 251 244 253 254 251
108 90 109 112 105 113 111 109 107 109 108 111 118 120 123 133 141 147 155 152 163 169 154 165 170 175 177 176 184 205 193 196 197 201 188 188 196 207 202 226 228 231 235 238 241 244 246 250 252 258 246 240 239 248
162 132 119 118 128 122 117 115 109 109 112 116 120 122 126 138 143 144 144 141 169 158 146 147 154 163 158 159 163 160 190 177 190 192 193 192 201 206 209 222 222 228 226 232 240 247 250 248 253 255 256 254 257 256
188 173 149 133 127 127 143 149 134 129 125 126 128 126 129 137 143 145 155 152 164 163 154 149 153 156 163 165 161 164 176 176 182 195 209 215 228 239 246 248 243 241 245 252 258 259 264 264 266 266 254 246 244 243
191 185 173 159 146 138 132 133 144 148 149 153 153 151 151 152 153 152 154 155 167 143 156 151 171 182 191 196 196 210 221 222 218 221 229 236 239 249 258 260 259 260 265 262 261 263 261 259 261 261 260 254 252 255
189 186 179 177 168 152 142 135 136 137 136 144 149 147 147 151 163 165 166 163 166 155 173 164 168 186 197 205 205 216 227 233 237 245 250 256 263 266 268 266 277 293 296 287 277 270 253 252 262 267 263 262 262 261
185 184 182 181 172 167 161 155 143 136 132 132 129 127 129 133 139 147 162 163 167 171 169 158 169 183 193 201 209 214 220 227 234 243 254 256 261 264 266 289 308 289 278 267 267 265 261 259 253 254 258 260 257 254
178 180 181 182 176 172 170 166 160 150 147 143 140 140 132 140 135 139 151 157 163 170 171 170 163 169 185 184 189 194 206 216 231 239 253 258 253 250 297 293 278 275 275 281 258 251 252 251 253 261 260 262 264 260
168 171 190 185 178 176 174 169 170 165 157 152 143 150 143 141 125 126 125 139 145 151 140 154 158 156 163 169 179 171 174 187 198 223 241 250 262 285 265 291 301 306 293 287 275 243 244 253 258 270 277 274 275 270
155 171 175 159 162 163 170 171 177 178 176 172 167 151 132 116 98 98 101 106 106 106 133 151 157 153 157 184 175 175 141 150 202 219 219 263 305 302 291 300 303 321 308 282 271 247 239 255 272 290 270 266 266 271
127 141 159 165 180 175 170 176 177 179 170 164 161 143 116 98 86 84 93 83 97 96 125 164 182 180 163 154 162 176 172 208 209 222 222 254 274 301 280 290 308 326 330 355 198 190 186 219 208 58 82 112 113 110
96 119 142 133 135 158 169 182 186 188 187 165 157 147 108 86 79 79 79 84 97 104 135 123 147 177 178 185 190 182 187 209 221 223 236 258 303 297 271 293 316 328 332 302 318 231 209 289 235 199 174 160 199 88
104 100 123 144 164 172 173 189 193 201 201 200 170 159 114 112 120 113 109 118 111 109 132 133 140 131 156 165 161 174 188 193 221 238 243 249 268 297 313 0 341 325 314 288 253 248 253 244 234 231 228 242 288 263
99 116 140 158 158 175 185 190 184 168 160 162 150 163 143 129 148 164 164 121 154 137 133 130 158 179 180 216 178 183 193 213 215 230 259 158 325 331 338 335 329 331 326 313 294 267 248 236 228 229 227 227 240 248
70 94 173 179 158 148 152 153 160 167 170 165 152 149 165 150 140 134 170 200 207 170 171 189 193 198 200 218 204 195 199 202 210 51 20 290 281 283 298 305 307 313 312 319 313 305 284 258 213 219 233 238 242 237
51 44 152 167 181 169 171 177 174 173 160 170 163 127 148 168 137 97 191 207 215 207 203 200 217 210 180 210 207 200 217 227 234 261 313 298 283 294 297 294 302 314 324 322 317 315 301 275 249 236 235 236 237 238
42 44 85 160 173 173 165 162 151 157 171 151 158 185 235 236 231 244 224 215 191 200 205 210 213 218 227 296 121 32 344 221 218 257 231 257 284 295 292 295 295 301 307 311 318 320 307 293 266 250 241 237 242 251
22 38 54 84 165 165 169 177 170 145 164 174 175 232 220 217 226 229 216 212 214 200 204 195 220 234 244 261 293 297 313 347 267 268 233 236 281 304 309 300 291 296 301 301 305 313 314 301 282 266 248 238 239 245
26 35 57 89 152 170 153 155 206 234 250 246 265 251 220 200 213 224 230 226 225 207 221 224 220 264 273 283 299 303 309 296 298 257 233 247 277 293 289 286 291 296 300 299 297 299 308 308 300 282 269 259 249 245
278 292 282 245 202 192 194 224 204 227 245 259 242 209 206 214 214 232 220 230 216 227 245 236 246 229 223 252 289 287 272 251 218 230 246 269 281 281 278 277 284 291 294 292 290 288 293 305 308 300 283 271 262 253
253 247 230 241 228 216 223 227 201 209 238 215 208 232 217 222 234 235 233 246 243 209 194 205 236 253 277 279 263 252 253 259 258 265 284 289 285 279 276 271 268 277 285 288 288 293 298 304 305 300 286 270 261 255
186 206 220 221 222 220 235 238 244 260 231 198 204 211 209 211 228 230 236 246 235 215 231 242 255 265 273 280 277 268 265 270 275 276 273 274 275 274 271 273 274 276 280 281 283 286 289 291 294 293 287 266 254 252
211 219 258 243 211 206 217 215 227 228 222 216 220 223 235 245 249 250 256 252 226 229 244 249 246 249 254 259 261 268 276 279 275 275 275 275 279 279 278 279 279 281 281 282 284 286 287 286 286 286 283 273 255 250
253 248 229 230 222 225 223 227 227 228 237 239 253 258 252 250 247 254 263 260 238 242 256 257 253 255 259 267 273 278 278 269 271 284 287 285 283 286 288 291 294 294 292 291 290 290 288 285 281 278 276 272 263 252
236 227 219 219 216 229 229 234 239 243 248 249 251 247 248 240 245 250 266 266 271 272 263 256 257 263 259 261 275 276 263 256 259 266 282 292 294 295 295 295 295 297 300 300 301 299 293 286 281 275 271 267 263 258
230 229 213 215 217 226 235 244 245 243 237 228 236 245 246 231 236 249 264 274 278 272 261 253 260 262 261 270 262 251 243 247 263 278 286 291 294 293 292 291 290 290 291 292 293 296 293 289 284 280 275 268 265 261
238 239 227 226 228 226 230 233 232 237 247 255 255 248 234 223 245 259 268 274 271 268 261 256 258 255 258 253 244 246 253 263 276 278 288 293 292 290 287 286 286 284 281 280 281 282 283 285 285 284 278 273 265 260
239 237 242 246 245 243 240 240 240 246 251 247 235 240 249 255 262 267 271 272 269 262 259 256 249 242 235 238 247 257 274 281 280 278 283 288 288 286 285 286 285 282 278 276 275 273 274 277 279 279 278 277 271 258
274 264 254 248 246 239 230 229 231 234 238 238 240 250 255 257 261 271 280 265 261 248 244 230 227 223 225 236 250 257 267 274 276 278 279 278 281 282 282 283 283 283 282 282 280 277 275 273 275 276 278 276 269 258
286 272 262 257 252 249 251 245 240 237 238 236 239 241 248 249 256 261 252 263 262 235 227 225 221 239 236 245 247 251 259 266 269 272 275 276 275 276 278 279 280 280 279 279 281 282 281 277 272 271 271 272 261 254
280 280 283 281 269 266 268 263 260 257 255 255 244 244 254 256 235 238 246 248 248 248 241 234 239 246 240 229 231 246 256 262 269 269 268 271 279 283 286 287 288 289 287 284 280 281 281 279 275 269 266 264 258 251
272 272 271 276 287 296 294 285 284 271 257 254 250 252 256 251 237 247 246 242 240 235 234 243 244 238 231 227 235 246 250 252 250 249 251 263 280 290 293 294 294 294 294 294 294 291 286 283 281 277 271 263 259 258
Height
2848 2846 2845 2845 2845 2844 2843 2843 2843 2845 2848 2851 2853 2856 2861 2865 2870 2876 2884 2888 2890 2897 2906 2911 2916 2922 2926 2934 2935 2941 2949 2952 2956 2962 2967 2970 2971 2977 2979 2980 2981 2986 2995 2998 3004 3008 3006 3003 3007 3006 3007 3007 3009 3009
2852 2851 2851 2850 2850 2851 2851 2851 2852 2852 2853 2855 2858 2861 2865 2870 2873 2878 2882 2887 2893 2901 2907 2914 2918 2923 2929 2937 2939 2939 2945 2947 2950 2957 2962 2964 2969 2972 2974 2978 2982 2985 2983 2988 2991 2990 2995 2997 2998 3000 3001 3001 3003 3005
2855 2855 2855 2855 2855 2855 2856 2857 2858 2859 2860 2862 2864 2867 2871 2874 2878 2882 2885 2890 2897 2904 2911 2915 2915 2922 2928 2931 2935 2938 2939 2945 2945 2952 2958 2962 2965 2968 2968 2974 2980 2977 2980 2983 2985 2984 2988 2993 2994 2994 2995 2996 2997 2999
2855 2857 2858 2859 2859 2859 2861 2862 2863 2865 2867 2868 2871 2873 2876 2879 2884 2888 2890 2894 2900 2902 2906 2914 2918 2924 2927 2930 2935 2936 2943 2944 2944 2948 2954 2957 2963 2965 2966 2973 2972 2972 2975 2974 2975 2978 2983 2987 2987 2987 2987 2988 2989 2990
2856 2857 2859 2861 2862 2864 2865 2866 2868 2871 2872 2874 2876 2879 2881 2884 2887 2891 2894 2898 2902 2908 2906 2913 2918 2922 2928 2931 2930 2934 2941 2941 2944 2948 2952 2956 2958 2964 2965 2966 2964 2966 2968 2968 2970 2973 2975 2977 2977 2978 2978 2979 2979 2979
2855 2857 2860 2862 2864 2866 2868 2870 2871 2874 2877 2879 2881 2883 2885 2887 2890 2892 2896 2900 2902 2904 2907 2913 2920 2924 2925 2927 2926 2932 2938 2943 2942 2945 2951 2953 2957 2962 2960 2955 2956 2959 2963 2961 2960 2963 2963 2962 2965 2966 2967 2970 2971 2971
2854 2858 2861 2863 2866 2867 2869 2871 2873 2876 2879 2881 2883 2886 2889 2891 2893 2895 2898 2899 2903 2906 2910 2914 2919 2919 2923 2926 2925 2931 2937 2937 2940 2946 2949 2951 2953 2953 2949 2944 2950 2952 2950 2949 2950 2950 2947 2951 2952 2956 2956 2957 2957 2956
2853 2857 2861 2864 2867 2870 2872 2874 2876 2878 2881 2883 2886 2888 2891 2893 2896 2897 2900 2904 2906 2908 2910 2913 2916 2920 2921 2922 2926 2929 2932 2935 2939 2941 2944 2946 2948 2947 2939 2942 2944 2941 2940 2938 2940 2940 2939 2942 2944 2945 2946 2946 2944 2943
2853 2857 2860 2864 2867 2870 2874 2877 2879 2882 2884 2886 2889 2892 2894 2896 2899 2902 2904 2905 2906 2908 2909 2911 2912 2915 2919 2922 2925 2928 2930 2932 2936 2937 2942 2944 2942 2938 2939 2938 2936 2935 2933 2932 2932 2933 2934 2935 2936 2937 2936 2935 2932 2931
2854 2857 2860 2863 2867 2871 2875 2878 2881 2884 2887 2890 2893 2895 2896 2899 2900 2901 2902 2903 2905 2908 2910 2909 2911 2915 2919 2923 2929 2933 2932 2932 2933 2936 2938 2938 2934 2934 2934 2932 2930 2930 2929 2928 2926 2927 2929 2930 2931 2931 2929 2927 2924 2923
2857 2859 2862 2864 2868 2872 2876 2880 2883 2886 2889 2892 2894 2896 2897 2898 2899 2900 2901 2902 2903 2905 2906 2910 2915 2919 2924 2928 2930 2931 2928 2928 2931 2936 2936 2933 2930 2929 2929 2929 2929 2927 2925 2923 2922 2922 2924 2925 2925 2925 2922 2921 2918 2918
2860 2861 2864 2867 2869 2874 2878 2881 2885 2888 2892 2894 2896 2897 2898 2899 2900 2901 2901 2903 2905 2908 2910 2913 2917 2919 2922 2924 2925 2927 2928 2930 2931 2932 2932 2929 2929 2929 2928 2927 2925 2924 2922 2921 2920 2920 2921 2922 2923 2922 2921 2919 2919 2919
2864 2865 2868 2870 2871 2876 2879 2883 2886 2890 2893 2895 2897 2899 2900 2901 2902 2902 2904 2905 2907 2909 2911 2913 2915 2918 2921 2924 2926 2926 2927 2929 2930 2930 2929 2928 2927 2927 2926 2925 2923 2921 2920 2919 2920 2921 2922 2923 2923 2923 2922 2923 2923 2923
2871 2872 2874 2876 2877 2879 2881 2884 2887 2890 2894 2897 2899 2901 2902 2902 2903 2905 2906 2908 2910 2912 2913 2915 2917 2919 2921 2922 2924 2925 2927 2928 2929 2928 2926 2926 2926 2925 2924 2923 2922 2921 2920 2919 2919 2919 2920 2920 2921 2921 2922 2922 2922 2923
2875 2877 2878 2879 2881 2882 2884 2886 2889 2893 2895 2899 2901 2902 2902 2903 2904 2906 2908 2910 2912 2913 2915 2916 2918 2920 2920 2921 2922 2924 2925 2925 2925 2923 2923 2924 2924 2923 2922 2922 2921 2920 2919 2918 2918 2917 2917 2917 2918 2918 2919 2920 2921 2922
2878 2879 2880 2881 2882 2884 2886 2888 2891 2895 2898 2901 2902 2902 2903 2905 2906 2907 2909 2910 2912 2914 2915 2917 2918 2919 2920 2920 2920 2921 2922 2921 2922 2922 2923 2923 2923 2922 2921 2920 2919 2918 2918 2917 2916 2915 2915 2914 2914 2916 2916 2917 2918 2918
2881 2880 2880 2881 2883 2887 2889 2892 2895 2897 2900 2901 2902 2903 2904 2906 2907 2908 2909 2910 2912 2914 2915 2916 2917 2917 2917 2918 2918 2918 2919 2920 2920 2921 2921 2921 2921 2920 2920 2919 2918 2917 2916 2915 2914 2913 2912 2912 2912 2913 2914 2914 2915 2916
2883 2883 2882 2883 2885 2888 2891 2894 2897 2899 2900 2901 2903 2904 2905 2906 2907 2907 2908 2909 2911 2912 2914 2915 2915 2915 2916 2914 2917 2917 2917 2917 2919 2919 2919 2919 2919 2919 2918 2917 2917 2916 2915 2914 2913 2912 2911 2910 2909 2910 2910 2911 2912 2913
2887 2887 2886 2886 2887 2891 2894 2896 2898 2899 2901 2902 2903 2903 2904 2905 2905 2906 2907 2908 2910 2911 2912 2913 2914 2913 2915 2915 2916 2916 2916 2916 2916 2916 2917 2917 2916 2916 2916 2915 2914 2913 2913 2912 2911 2910 2910 2909 2908 2907 2907 2908 2909 2910
2890 2890 2890 2891 2892 2894 2896 2898 2899 2900 2901 2902 2901 2902 2903 2903 2904 2905 2906 2907 2908 2909 2910 2911 2912 2913 2913 2913 2913 2913 2913 2913 2913 2914 2915 2915 2914 2914 2914 2913 2912 2911 2911 2910 2909 2909 2908 2907 2906 2905 2905 2905 2905 2906
2891 2892 2892 2893 2894 2895 2897 2897 2898 2899 2899 2899 2900 2901 2902 2902 2903 2903 2904 2905 2906 2906 2906 2908 2909 2910 2910 2911 2911 2910 2911 2911 2911 2912 2912 2912 2912 2912 2911 2910 2909 2909 2909 2908 2908 2907 2906 2905 2904 2903 2902 2902 2902 2903
2890 2890 2891 2892 2893 2894 2895 2896 2897 2897 2898 2898 2899 2899 2900 2901 2901 2901 2902 2903 2904 2905 2906 2907 2907 2907 2907 2908 2908 2908 2909 2909 2909 2910 2909 2909 2909 2909 2909 2908 2907 2907 2907 2907 2906 2905 2904 2903 2901 2900 2900 2899 2899 2900
2890 2891 2890 2891 2892 2893 2895 2894 2895 2896 2897 2897 2898 2898 2899 2899 2900 2900 2900 2900 2901 2902 2903 2904 2904 2904 2904 2904 2904 2905 2905 2906 2906 2906 2906 2906 2906 2905 2905 2904 2904 2904 2903 2903 2903 2902 2901 2900 2900 2898 2897 2897 2897 2897
2890 2890 2890 2889 2889 2890 2891 2891 2892 2893 2894 2895 2896 2896 2897 2898 2898 2898 2898 2898 2899 2899 2900 2900 2901 2901 2902 2902 2902 2902 2902 2902 2902 2901 2901 2901 2900 2900 2900 2900 2899 2899 2898 2898 2897 2897 2896 2896 2895 2895 2894 2894 2894 2894
2890 2889 2889 2887 2887 2887 2888 2888 2889 2890 2891 2892 2893 2893 2894 2894 2894 2894 2894 2895 2896 2896 2897 2897 2897 2898 2898 2898 2898 2898 2897 2897 2897 2897 2897 2897 2897 2897 2897 2896 2895 2894 2894 2893 2892 2891 2891 2890 2890 2890 2890 2890 2890 2890
2884 2883 2884 2882 2883 2884 2884 2884 2885 2886 2887 2888 2888 2888 2889 2890 2890 2889 2888 2890 2891 2892 2892 2893 2893 2894 2894 2894 2893 2893 2892 2893 2893 2894 2894 2894 2894 2894 2893 2892 2892 2891 2890 2889 2888 2887 2886 2886 2885 2885 2885 2885 2886 2886
2878 2877 2876 2877 2878 2879 2880 2880 2881 2882 2882 2882 2883 2884 2885 2884 2883 2883 2884 2885 2886 2886 2887 2888 2889 2889 2889 2889 2889 2890 2890 2890 2891 2891 2891 2890 2890 2890 2889 2888 2887 2886 2885 2884 2884 2883 2882 2881 2881 2880 2880 2880 2880 2881
2872 2872 2873 2873 2873 2874 2875 2876 2876 2876 2876 2877 2879 2878 2878 2878 2878 2878 2879 2880 2880 2881 2881 2882 2883 2884 2884 2885 2886 2886 2887 2887 2887 2886 2886 2885 2884 2884 2883 2882 2882 2881 2880 2879 2879 2878 2877 2877 2876 2875 2875 2875 2875 2875
2867 2867 2868 2867 2867 2868 2867 2868 2869 2869 2870 2871 2872 2872 2872 2872 2873 2872 2873 2873 2873 2874 2875 2876 2877 2878 2879 2880 2881 2882 2882 2882 2881 2881 2880 2879 2879 2878 2877 2876 2876 2875 2874 2874 2873 2872 2872 2872 2871 2870 2870 2869 2869 2869
2861 2860 2861 2861 2861 2861 2860 2861 2861 2862 2863 2864 2864 2865 2865 2865 2867 2867 2866 2866 2867 2867 2868 2868 2869 2871 2874 2875 2876 2877 2877 2877 2876 2876 2875 2874 2873 2872 2871 2871 2870 2869 2868 2868 2867 2866 2866 2865 2865 2865 2864 2863 2863 2863
2855 2855 2854 2853 2853 2855 2853 2854 2854 2855 2855 2856 2858 2859 2858 2859 2859 2860 2861 2861 2861 2861 2862 2864 2865 2867 2868 2870 2871 2871 2871 2872 2871 2871 2870 2869 2868 2867 2866 2865 2864 2864 2863 2862 2861 2860 2860 2859 2859 2859 2859 2859 2858 2859
2851 2850 2849 2848 2848 2848 2847 2846 2846 2847 2849 2849 2850 2850 2850 2851 2851 2853 2854 2855 2856 2857 2858 2858 2860 2861 2862 2862 2864 2865 2865 2865 2866 2865 2865 2864 2864 2863 2862 2861 2860 2859 2858 2857 2856 2855 2854 2854 2854 2854 2854 2854 2854 2854
2847 2846 2845 2844 2844 2843 2843 2842 2841 2840 2841 2842 2843 2843 2842 2844 2845 2846 2848 2849 2850 2851 2852 2854 2855 2856 2857 2858 2858 2859 2860 2860 2861 2861 2861 2860 2860 2859 2858 2857 2856 2855 2854 2853 2852 2851 2850 2849 2849 2848 2848 2848 2849 2849